Location: Peralejo
(40.5415°N, 4.1259°W)
Time: 02:34:48
(UTC+00:00)

CSL-04 Debris - Pass Details

Date: 18 April 2024
Orbit: 823 x 844 km, 98.8° (Epoch: 18 May)

Event Time Altitude Azimuth Distance (km) Brightness Sun altitude
Exits shadow 20:04:00 - 161° (SSE) 2,822 6.5 -12.3°
Reaches altitude 10° 20:04:58 10° 161° (SSE) 2,440 6.2 -12.5°
Maximum altitude 20:10:23 82° 75° (ENE) 853 4.1 -13.4°
Drops below altitude 10° 20:15:52 10° 348° (NNW) 2,469 7.2 -14.3°
Sets 20:18:15 0° 348° (NNW) 3,409 8.0 -14.7°
